User: anonymous   Login
Location: Bismarck
(46.7731°N, 100.8200°W)
Time: 19:55:50
(UTC-06:00)
Language:

Landsat 7 - Orbit

View from above orbital plane
View from above orbital plane
View from above satellite
View from above satellite

Ground track
Ground track

The orbit data is extracted from the following two-line orbital elements,

1 25682U 99020A   15058.26483540  .00000188  00000-0  51764-4 0  9998
2 25682 098.2293 129.5672 0001293 095.7081 264.4240 14.57102428844131
Epoch (UTC): 27 February 2015 06:21:21
Eccentricity: 0.0001293
inclination: 98.2293°
perigee height: 701 km
apogee height: 703 km
right ascension of ascending node: 129.5672°
argument of perigee: 95.7081°
revolutions per day: 14.57102428
mean anomaly at epoch: 264.4240°
orbit number at epoch: 84413

The dashed part of the orbit path shows where the satellite is in the earth's shadow,  

DLR